Wind_Speed
19 13 22 23 23 27 24 26 25 23 18 19 18 21 23 17 22 22 23 21 25 27 28 28 26 24 27 28 31 35 35 34 34 36 35 37 36 34 32 32 29 27 26 24
18 23 24 22 25 26 27 27 27 22 21 17 20 25 18 18 21 28 30 27 24 28 29 32 31 30 27 26 28 27 30 32 31 36 35 38 36 34 32 34 30 30 29 27
21 27 24 26 24 26 26 26 21 20 19 18 21 24 22 27 28 30 33 26 27 27 23 18 18 23 31 32 30 29 26 24 27 36 30 32 29 27 30 35 33 30 30 30
23 21 26 28 26 24 25 23 18 19 16 16 18 15 22 17 14 23 28 33 22 6 8 12 15 19 24 30 35 32 26 25 29 37 31 30 32 34 35 32 29 29 27 27
25 25 24 27 30 24 19 22 16 18 18 17 20 12 17 17 18 11 9 6 1 5 7 11 14 19 24 24 32 34 30 28 33 37 30 28 33 34 27 27 28 25 25 25
26 36 28 26 27 26 12 16 15 17 13 15 19 17 14 15 14 13 11 5 8 11 12 11 13 13 19 23 25 33 32 29 35 35 29 29 36 30 19 19 20 22 22 25
26 25 27 27 26 11 13 10 8 7 10 13 18 16 12 13 6 10 8 11 15 16 15 25 14 14 14 21 28 33 32 27 30 30 29 27 29 21 20 20 18 20 22 23
16 21 15 19 18 9 23 18 7 7 7 13 19 9 10 11 16 10 14 14 18 21 22 26 20 22 13 17 25 26 24 26 26 23 29 30 25 23 24 24 20 25 24 24
9 14 17 22 8 6 17 23 20 12 14 6 6 11 17 18 6 12 11 18 21 21 19 21 22 27 11 11 20 23 20 22 26 26 26 27 22 22 23 22 24 23 19 19
4 11 17 9 13 20 12 12 13 7 4 4 2 5 7 9 10 9 10 14 21 20 18 21 23 28 17 10 8 12 17 20 26 27 25 24 22 20 19 22 19 18 18 18
13 7 13 12 7 15 11 4 4 7 10 2 2 4 10 13 8 9 12 19 22 18 19 21 22 21 18 2 3 10 21 9 25 26 23 21 18 20 18 16 15 14 14 13
9 5 7 15 19 28 19 14 17 4 5 7 2 3 6 11 9 16 17 23 21 20 21 22 22 19 16 13 8 6 10 11 17 22 21 16 19 17 13 15 10 10 9 7
6 4 5 4 13 21 19 16 11 14 2 6 5 4 6 13 19 22 23 23 25 22 24 26 24 21 18 12 7 5 13 8 19 19 17 16 16 17 14 13 10 8 8 9
14 6 10 10 10 12 16 15 3 2 4 4 6 13 7 16 16 17 23 24 22 21 24 25 28 24 19 14 6 1 5 10 15 19 14 16 15 14 12 11 10 9 9 12
3 7 9 23 29 13 10 11 7 7 5 3 4 15 17 18 16 19 21 21 22 23 25 25 28 27 22 17 9 2 5 9 10 13 15 15 14 11 10 11 9 9 9 12
3 3 10 9 4 21 12 8 16 9 9 9 11 7 21 24 23 23 22 22 21 23 24 25 25 26 25 21 16 8 1 10 12 17 17 16 15 13 14 15 12 10 11 10
4 1 2 11 15 19 15 10 11 19 20 14 12 18 21 17 16 20 21 20 21 21 23 25 25 26 25 22 18 11 5 8 17 20 19 20 19 20 18 19 20 20 16 16
6 11 1 3 4 9 11 17 19 21 18 18 16 20 18 12 18 21 21 19 19 19 21 22 24 25 24 19 15 12 6 5 14 20 21 18 16 18 20 19 18 20 19 19
6 8 3 3 9 9 14 18 15 11 11 17 16 17 20 14 10 23 21 18 18 19 20 19 20 21 20 20 16 10 8 7 11 16 18 17 18 19 20 24 22 22 21 21
7 6 3 2 6 3 9 18 20 9 4 15 17 15 16 13 4 6 16 18 20 21 22 21 22 24 26 25 21 15 14 14 17 14 15 14 13 15 15 15 16 16 18 21
5 6 7 5 5 6 17 23 19 2 5 13 14 15 19 10 9 8 12 17 20 23 23 22 25 27 28 28 26 27 25 23 19 18 17 18 16 13 13 15 17 19 19 19
8 6 6 7 5 4 30 10 7 5 11 11 12 13 13 13 13 14 16 17 19 21 24 25 26 26 25 27 29 30 30 22 18 22 26 24 24 24 25 24 22 20 21 21
5 5 3 6 4 10 15 15 13 12 11 13 12 12 12 14 15 16 18 20 21 23 23 24 26 26 26 25 27 28 25 24 23 28 24 27 25 21 21 22 25 23 23 24
4 16 3 6 8 11 13 13 14 12 12 12 13 12 13 15 15 17 19 20 22 23 24 24 26 28 28 26 24 25 22 24 28 30 30 27 24 22 20 20 19 16 21 21
5 10 7 7 10 12 14 12 10 11 13 15 15 15 15 15 16 16 17 18 19 20 22 22 24 25 26 25 25 24 22 22 23 26 27 29 27 27 26 26 26 22 23 20
7 4 4 4 5 12 9 9 8 11 13 14 14 15 15 15 14 14 16 16 17 18 18 19 20 21 22 24 24 22 21 20 22 23 22 20 21 23 23 23 24 23 21 20
Wind_Direction
228 229 233 231 230 247 261 264 263 265 266 260 234 248 267 242 273 287 275 249 257 259 261 260 249 235 232 232 229 223 209 211 224 231 222 214 215 217 220 224 228 231 235 235
243 240 244 250 255 251 242 249 258 267 268 286 287 282 281 270 266 253 257 248 255 260 248 244 243 234 231 229 229 218 202 212 218 236 230 221 218 220 222 233 232 235 239 244
256 259 255 243 246 254 253 253 250 264 268 266 261 269 275 258 254 254 252 249 248 252 257 253 247 232 225 227 222 211 199 215 217 235 228 222 222 229 226 236 240 239 239 239
273 270 268 261 253 232 251 251 253 250 261 262 257 266 263 269 246 224 237 235 231 253 293 286 272 262 251 226 215 218 204 210 220 232 226 211 212 214 223 230 235 240 239 238
271 272 258 262 260 246 238 246 248 252 252 255 260 267 267 272 281 173 135 125 113 260 281 273 269 267 256 236 214 213 209 208 216 228 227 206 209 223 226 232 240 239 237 235
266 270 276 268 257 257 256 237 237 240 248 250 244 244 256 274 267 134 99 122 58 23 349 304 275 264 262 231 228 202 197 204 218 223 215 208 213 218 233 228 229 239 240 232
265 263 268 264 242 265 215 213 224 227 220 240 243 239 224 214 321 105 134 85 55 28 1 347 303 282 259 232 226 191 195 196 218 222 206 203 218 225 209 228 230 234 234 232
288 287 272 263 238 202 221 212 204 207 210 237 229 232 249 191 164 117 69 66 57 37 5 340 350 341 281 245 179 183 188 192 205 213 198 203 211 212 217 225 229 234 238 238
310 290 290 247 191 161 218 217 206 275 278 259 260 211 123 157 178 113 89 62 53 35 2 338 339 348 293 168 168 173 181 194 202 207 200 200 203 208 211 229 226 239 238 231
297 305 300 268 182 210 181 220 214 217 237 237 242 172 233 48 120 79 63 62 50 30 3 351 350 353 19 207 201 216 193 202 204 201 194 197 201 206 213 223 234 228 232 234
303 243 279 307 197 235 182 186 238 209 250 274 238 112 60 104 14 39 67 59 57 31 9 358 357 8 55 143 271 236 179 171 194 192 192 201 195 196 209 230 225 219 230 222
308 281 289 240 193 220 212 172 218 247 255 247 110 21 358 330 50 32 52 55 52 31 14 6 3 9 36 52 25 189 181 166 200 197 192 196 198 199 203 219 224 210 218 207
359 279 307 236 248 249 213 201 177 218 222 301 308 105 276 285 51 46 41 28 32 20 12 7 10 6 15 28 40 336 214 190 181 190 200 199 196 199 201 224 211 198 175 178
269 244 236 260 285 194 202 192 250 108 201 195 251 123 58 32 32 40 26 22 20 12 11 5 7 4 2 14 19 305 254 190 188 198 186 193 195 196 206 201 196 191 181 183
238 244 235 246 248 129 112 139 181 195 79 254 17 49 31 28 35 28 19 18 14 8 7 4 1 360 356 356 9 352 226 199 206 200 191 193 192 193 181 176 170 177 176 184
211 294 284 73 106 117 125 178 211 151 22 10 342 27 16 16 35 24 18 16 14 9 4 3 1 0 359 353 352 8 7 194 192 190 186 195 189 185 185 177 170 161 168 166
283 348 272 67 101 102 65 46 65 67 42 20 23 1 359 20 43 33 22 21 16 10 7 5 5 4 1 356 343 352 15 137 164 188 191 188 191 182 174 183 185 180 172 174
299 282 147 147 202 78 53 36 85 83 45 25 14 8 359 79 66 43 29 22 18 16 14 12 9 10 9 3 353 343 5 118 140 173 179 188 194 197 197 194 189 188 192 195
230 315 31 82 80 145 35 20 9 16 47 18 9 7 358 144 98 40 24 27 29 29 30 29 33 30 28 26 19 360 13 72 114 130 156 164 174 182 194 208 206 200 200 198
358 328 24 122 103 65 13 336 338 330 73 20 18 15 6 6 49 27 15 29 35 42 44 41 44 51 49 48 47 50 48 52 62 92 119 132 149 155 175 191 189 170 175 183
352 14 23 26 62 86 349 331 317 45 7 33 33 36 37 55 53 36 32 38 40 44 48 52 48 47 53 55 60 63 64 55 53 74 101 110 108 111 131 151 161 170 170 173
39 337 25 351 38 60 359 24 50 342 50 51 53 49 58 58 52 44 38 36 39 40 45 53 54 54 54 55 56 60 62 62 69 71 72 82 89 95 98 99 105 115 127 126
52 20 37 28 71 72 47 57 42 45 56 47 57 57 64 62 53 47 44 42 42 46 49 52 58 58 55 56 58 54 57 67 66 73 77 78 79 82 86 94 93 88 103 101
49 11 82 170 67 67 57 57 55 51 60 62 66 66 68 67 60 56 51 48 47 47 49 54 56 55 54 53 56 60 56 63 63 67 69 73 81 83 81 76 74 80 79 86
348 321 24 97 118 105 56 52 56 63 66 68 70 69 67 68 63 61 56 51 48 45 44 49 55 53 55 59 57 55 57 59 63 68 69 69 70 73 74 78 77 72 71 75
3 8 357 58 43 89 64 57 68 74 72 74 72 68 67 67 65 62 56 51 49 48 47 45 49 56 58 60 59 61 56 55 62 62 66 71 70 70 69 70 75 73 74 76
Height
1440 1443 1429 1428 1430 1428 1423 1418 1414 1407 1405 1408 1408 1410 1406 1402 1401 1400 1398 1399 1399 1400 1401 1401 1402 1404 1407 1409 1413 1416 1416 1418 1425 1429 1433 1437 1440 1445 1448 1451 1455 1458 1461 1466
1434 1425 1420 1424 1420 1416 1415 1416 1411 1408 1407 1411 1409 1403 1398 1398 1395 1396 1394 1392 1394 1395 1395 1395 1396 1397 1400 1403 1407 1410 1411 1412 1419 1424 1428 1432 1435 1440 1443 1445 1450 1453 1456 1459
1426 1414 1414 1413 1414 1414 1409 1407 1409 1415 1410 1409 1409 1405 1397 1385 1385 1385 1384 1385 1389 1387 1387 1387 1388 1390 1393 1397 1401 1404 1407 1407 1414 1418 1423 1429 1433 1437 1438 1439 1442 1447 1450 1453
1419 1414 1411 1406 1400 1404 1408 1399 1404 1411 1415 1419 1405 1405 1391 1372 1364 1368 1372 1377 1379 1380 1383 1384 1384 1385 1387 1389 1393 1397 1401 1407 1410 1413 1417 1422 1424 1426 1429 1433 1437 1441 1443 1446
1416 1410 1406 1404 1394 1392 1397 1397 1402 1407 1410 1411 1407 1407 1385 1372 1365 1361 1367 1373 1377 1380 1382 1383 1383 1383 1382 1384 1386 1390 1395 1403 1403 1408 1414 1418 1420 1422 1426 1430 1433 1436 1439 1441
1409 1406 1398 1394 1393 1391 1395 1396 1401 1405 1406 1411 1399 1398 1389 1375 1358 1358 1366 1374 1376 1379 1381 1380 1379 1378 1377 1378 1381 1383 1390 1397 1399 1405 1410 1415 1415 1420 1424 1425 1428 1430 1433 1435
1410 1398 1394 1388 1388 1391 1390 1402 1420 1420 1409 1404 1388 1383 1377 1370 1365 1362 1367 1372 1377 1380 1381 1378 1376 1374 1371 1374 1376 1379 1386 1393 1395 1401 1406 1411 1413 1419 1422 1421 1424 1426 1427 1429
1419 1396 1385 1381 1379 1394 1395 1393 1404 1403 1398 1391 1378 1383 1367 1357 1362 1366 1370 1375 1378 1381 1383 1381 1374 1373 1371 1370 1372 1378 1383 1390 1394 1396 1403 1408 1410 1414 1418 1420 1421 1421 1422 1424
1423 1393 1376 1374 1380 1391 1387 1391 1388 1398 1394 1404 1393 1363 1359 1361 1369 1364 1371 1376 1381 1385 1389 1386 1378 1373 1373 1371 1372 1377 1383 1388 1392 1395 1400 1404 1408 1410 1414 1416 1417 1418 1418 1420
1429 1422 1382 1374 1380 1386 1383 1383 1395 1395 1405 1399 1390 1382 1389 1374 1368 1368 1372 1377 1384 1391 1393 1387 1382 1376 1371 1369 1374 1379 1382 1388 1389 1392 1397 1402 1402 1407 1411 1412 1413 1414 1414 1416
1423 1423 1392 1391 1385 1380 1373 1386 1388 1393 1388 1401 1378 1378 1387 1387 1382 1376 1376 1382 1389 1396 1397 1390 1384 1380 1374 1375 1377 1376 1381 1385 1385 1390 1396 1398 1401 1406 1407 1410 1410 1411 1411 1412
1422 1417 1403 1388 1377 1375 1365 1377 1390 1392 1388 1376 1386 1399 1400 1388 1382 1382 1383 1389 1395 1400 1398 1392 1387 1383 1378 1378 1380 1380 1381 1383 1385 1388 1393 1397 1400 1405 1406 1408 1408 1408 1408 1410
1427 1411 1400 1389 1383 1367 1364 1367 1378 1392 1385 1393 1393 1402 1406 1394 1390 1395 1396 1398 1398 1401 1400 1394 1389 1386 1383 1381 1380 1384 1384 1386 1387 1388 1392 1396 1401 1404 1405 1406 1407 1406 1408 1409
1427 1418 1411 1395 1373 1363 1367 1368 1380 1386 1391 1395 1392 1402 1401 1394 1394 1402 1404 1403 1404 1406 1403 1399 1394 1390 1387 1384 1382 1383 1386 1387 1388 1389 1392 1397 1400 1402 1404 1405 1407 1407 1409 1410
1418 1408 1400 1387 1382 1366 1378 1385 1396 1393 1386 1390 1385 1392 1399 1401 1406 1410 1411 1410 1410 1410 1407 1404 1399 1394 1391 1387 1384 1383 1384 1386 1388 1390 1394 1398 1400 1402 1403 1405 1407 1407 1409 1411
1412 1395 1390 1381 1368 1370 1388 1398 1394 1382 1387 1384 1384 1389 1406 1409 1416 1418 1419 1416 1416 1415 1412 1408 1404 1399 1395 1391 1387 1385 1384 1385 1388 1390 1394 1397 1400 1401 1402 1405 1407 1408 1410 1412
1409 1402 1379 1374 1365 1369 1385 1384 1382 1396 1406 1405 1409 1415 1415 1417 1426 1428 1426 1424 1422 1419 1416 1412 1408 1403 1398 1393 1391 1387 1385 1384 1385 1389 1392 1395 1396 1398 1400 1402 1405 1407 1409 1410
1407 1399 1376 1382 1374 1389 1397 1393 1399 1413 1425 1428 1426 1426 1427 1431 1435 1433 1432 1431 1429 1425 1422 1417 1413 1407 1402 1398 1393 1390 1388 1386 1385 1387 1390 1394 1396 1397 1400 1402 1403 1406 1408 1411
1400 1384 1379 1379 1387 1404 1404 1411 1411 1412 1436 1440 1438 1438 1434 1431 1432 1437 1439 1438 1435 1430 1425 1422 1417 1412 1408 1401 1396 1394 1393 1389 1386 1385 1388 1392 1395 1397 1399 1400 1402 1404 1406 1408
1391 1386 1380 1378 1382 1399 1430 1429 1422 1417 1439 1448 1447 1446 1441 1438 1436 1446 1446 1443 1438 1434 1430 1426 1421 1417 1410 1406 1403 1399 1396 1396 1393 1389 1386 1389 1393 1395 1397 1399 1401 1402 1403 1405
1399 1393 1392 1394 1396 1426 1443 1427 1413 1422 1454 1453 1453 1452 1449 1448 1453 1453 1450 1446 1443 1439 1434 1431 1426 1422 1418 1414 1411 1405 1401 1403 1405 1397 1387 1387 1391 1396 1398 1398 1400 1402 1402 1403
1421 1420 1418 1411 1416 1427 1447 1432 1440 1459 1458 1457 1457 1456 1456 1457 1456 1455 1452 1449 1445 1442 1439 1435 1431 1429 1427 1422 1419 1413 1408 1409 1414 1397 1395 1395 1397 1402 1403 1403 1405 1406 1403 1404
1435 1440 1439 1445 1452 1461 1461 1460 1462 1461 1461 1460 1459 1459 1459 1459 1459 1458 1455 1452 1449 1447 1445 1442 1439 1436 1432 1429 1425 1421 1425 1422 1414 1404 1408 1402 1403 1411 1413 1410 1410 1414 1412 1407
1443 1442 1443 1448 1461 1463 1464 1465 1465 1465 1464 1463 1462 1462 1462 1461 1461 1460 1459 1457 1455 1453 1451 1448 1444 1441 1438 1436 1433 1430 1429 1424 1424 1417 1412 1410 1415 1415 1417 1417 1418 1423 1417 1410
1455 1450 1450 1457 1462 1465 1468 1468 1468 1468 1467 1465 1465 1465 1465 1464 1464 1464 1463 1462 1460 1459 1457 1454 1451 1449 1447 1443 1440 1436 1436 1433 1430 1424 1425 1425 1426 1421 1423 1422 1424 1429 1425 1424
1462 1463 1458 1460 1465 1465 1471 1471 1471 1470 1468 1468 1468 1468 1468 1467 1467 1467 1466 1466 1465 1463 1461 1459 1456 1454 1453 1450 1447 1446 1443 1439 1435 1434 1434 1436 1433 1430 1434 1432 1428 1433 1432 1431